Content
SEND FEEDBACK

Daily
Averages
Monthly
Summary
Italy

PORDENONE, ITALY


Home > Europe > Italy
Elevation: 420 feet     Latitude: 46 00N     Longitude: 012 36E

WEATHER
 
SELECT A DAY
Number of Records: 113,429;   Date Range: 9/12/98 - 12/27/14
 
SHARE

PRINT THIS DATA

[ ← Previous Day ]
WEATHER ALMANAC - MARCH 29, 2014
[ Next Day → ]
[ °C ]   °F
Weather ElementAverageHighLow
Temperature56.5 °F69.1 °F (3:58 pm)40.8 °F (4:58 am)
Dewpoint38.9 °F44.2 °F (8:58 am)34.7 °F (5:58 am)
Humidity54.6 %80 % (4:58 am)32 % (3:58 pm)
Barometer30.17 in30.21 in (10:58 am)30.13 in (2:50 am)
Wind Speed4.4 mph8.1 mph (3:05 am)
Weather ElementAverage
Visibility5 mi
Wind DirectionE (92.3 °)

Weather ElementTotal
Precipitation---
Heating Degree Days10.1 (Base 65)
Growing Degree Days5 (Base 50)
Averaged from 31 records on March 29, 2014
WEATHER CONDITIONS BREAKOUT
WIND DIRECTION BREAKOUT
WEATHER BY HOUR - MARCH 29, 2014
[ °C ]   °F
Local TimeTemperatureDewpointHumidityBarometerVisibilityWind DirectionWind SpeedGust SpeedPrecipitationEventsConditions
1:58 AM46.0 °F35.2 °F66 %30.14 in6.2 miNNE (30°)5.8 mphClear
2:50 AM44.6 °F35.6 °F71 %30.13 in5.0 miNE (50°)6.9 mphHaze
2:58 AM44.4 °F36.0 °F72 %30.14 in5.0 miNE (50°)6.9 mphHaze
3:04 AM44.6 °F35.6 °F71 %30.13 in5.0 miNE (50°)6.9 mphHaze
3:05 AM44.6 °F35.6 °F71 %30.13 in5.0 miNE (50°)8.1 mphHaze
3:58 AM45.1 °F36.3 °F71 %30.14 in6.2 miNNE (20°)6.9 mphClear
4:58 AM40.8 °F35.1 °F80 %30.15 in5.6 miNE (40°)5.8 mphHaze
5:58 AM41.9 °F34.7 °F76 %30.17 in6.2 miNNE (20°)4.6 mphHaze
6:58 AM48.0 °F37.8 °F68 %30.18 in5.0 miNNE (20°)3.5 mphHaze
7:58 AM54.9 °F41.4 °F60 %30.19 in2.5 miCalmHaze
8:00 AM55.4 °F42.8 °F63 %30.18 in3.1 miCalmHaze
8:58 AM59.0 °F44.2 °F58 %30.20 in5.0 miWest (270°)3.5 mphHaze
9:58 AM63.1 °F40.6 °F44 %30.20 in5.0 miSouth (180°)2.3 mphHaze
10:13 AM64.4 °F41.0 °F42 %30.19 in2.5 miSE (140°)1.2 mphHaze
10:15 AM64.4 °F42.8 °F45 %30.19 in3.1 miVariable1.2 mphHaze
10:50 AM64.4 °F41.0 °F42 %30.20 in2.5 miVariable2.3 mphHaze
10:58 AM65.1 °F40.6 °F41 %30.21 in2.5 miSouth (190°)4.6 mphHaze
11:58 AM66.2 °F38.7 °F36 %30.20 in2.5 miVariable4.6 mphHaze
12:45 PM68.0 °F37.4 °F33 %30.19 in3.1 miWSW (250°)3.5 mphHaze
12:58 PM67.8 °F38.1 °F34 %30.20 in6.2 miSW (230°)4.6 mphClear
1:58 PM68.4 °F38.5 °F33 %30.18 in6.2 miSW (220°)5.8 mphClear
2:58 PM68.5 °F38.8 °F34 %30.17 in6.2 miSW (220°)4.6 mph0.00 inClear
3:58 PM69.1 °F37.8 °F32 %30.15 in6.2 miVariable4.6 mphClear
4:58 PM68.2 °F38.5 °F34 %30.15 in6.2 miSSE (160°)4.6 mphClear
5:58 PM65.7 °F40.3 °F39 %30.15 in6.2 miSouth (180°)4.6 mphClear
6:58 PM61.5 °F40.6 °F46 %30.15 in6.2 miWNW (290°)5.8 mphClear
7:58 PM59.2 °F40.1 °F49 %30.17 in6.2 miNNE (20°)2.3 mphClear
8:58 PM51.8 °F41.5 °F68 %30.17 in6.2 miENE (60°)2.3 mphClear
9:58 PM46.9 °F40.8 °F79 %30.17 in6.2 miNNE (30°)5.8 mphClear
10:58 PM49.5 °F40.3 °F71 %30.17 in6.2 miNE (50°)5.8 mphClear
11:58 PM50.5 °F38.5 °F63 %30.17 in6.2 miNE (40°)6.9 mphClear
Hourly data recorded from LIYW, located miles away from Pordenone, Italy







STORIES FROM OUR PARTNERS